Weather in Kolashin

Montenegro     42°49′30″N   19°31′21″E
temp.,
°C
wind,
m/s
gust,
m/s
humid.,
%
clouds,
%
prec.,
mm/h
press.,
hPa
HPBL,
m
15 june, tue
tue1523:00+5ne359277 0.1 1020318
02:00+6ne2692100 0.1 1019330
05:00+3ne349728 0.1 102080
08:00+8ne367879 0.1 1019591
11:00+11nne466854 0.1 10191127
14:00+13nne456237 0.1 10181155
17:00+13ne356372 0.1 1018961
20:00+9ne22844 0.1 101833
16 june, wed
wed1623:00+7ne339513 0.0 101950
02:00+9ne2492100 0.0 101892
05:00+9ne239010 0.0 101877
08:00+14ne247124 0.0 1017632
11:00+17ne345696 0.0 10171499
14:00+19ne235071 0.1 10161628
17:00+19ene235278 0.0 10151425
20:00+14ene217660 0.1 101713
17 june, thu
thu1723:00+10ne228512 0.0 101922
02:00+9ne22915 0.0 101925
05:00+8ne22915 0.0 101925
08:00+15ne22713 0.0 1018317
11:00+20n014622 0.0 10181772
14:00+21sw234875 0.1 10172019
17:00+17sw228679 1.5 1018121
20:00+14ssw118750 2.8 101910
18 june, fri
fri1823:00+11ne11895 0.0 102013
02:00+10ne11891 0.0 102014
05:00+10ne11890 0.0 102015
08:00+16ne11770 0.0 1019180
11:00+22nnw024721 0.0 10171874
14:00+18sw2378100 0.5 1017168
17:00+18sw228419 3.4 1017178
20:00+15n008624 4.4 101711
19 june, sat
sat1923:00+12nne2290100 0.0 101922
02:00+11ne22927 0.0 101926
05:00+11ne22935 0.0 101832
08:00+16nne23790 0.0 1018247
11:00+22n23485 0.0 10171631
14:00+25nnw244038 0.0 10142568
17:00+22ene235380 0.1 10151024
20:00+16ene22850 0.4 101717